Temp
61 61 61 61 60 60 60 60 60 60 60 60 61 61 61 61 61 61 61 62 61 61 61 62 62 63 87 95 99 101 86 86 103 108 106 104 101 101 96 101 100 98 99 101 103 103 102
61 61 61 61 60 60 60 60 60 60 60 60 60 60 60 60 61 61 61 61 61 61 61 62 63 62 92 91 108 109 108 108 109 108 107 106 104 105 100 99 98 101 100 101 103 102 102
61 61 61 60 60 60 60 60 60 60 59 59 59 59 59 60 60 60 60 60 60 60 61 63 65 84 96 97 109 111 110 109 109 109 105 107 107 103 104 98 104 102 96 100 102 101 100
60 60 60 60 60 59 59 59 59 59 59 59 59 59 59 59 59 59 59 59 60 61 63 66 67 92 94 108 112 107 111 109 111 111 108 108 109 105 102 106 100 96 98 91 99 99 101
59 60 60 60 59 59 59 59 59 59 59 58 58 58 58 58 58 58 58 58 60 64 66 69 86 96 94 92 103 111 111 105 108 109 109 107 106 102 103 94 91 95 83 79 92 100 98
59 59 59 59 59 59 58 58 58 58 58 58 58 58 58 57 58 57 57 58 68 67 74 92 97 91 99 97 104 106 111 107 103 104 101 100 100 95 96 93 81 86 88 88 87 95 97
59 59 59 59 59 58 58 58 58 58 58 58 58 57 57 57 57 57 67 98 91 87 94 94 96 97 97 104 106 103 108 103 103 99 91 98 91 87 92 95 95 93 90 88 92 96 93
59 59 58 59 58 58 58 58 57 57 57 57 57 57 57 57 56 56 69 93 89 88 85 100 99 99 101 102 95 100 108 96 95 89 95 92 86 95 98 95 93 91 88 88 93 95 94
58 58 58 58 58 57 57 57 57 57 57 57 57 56 56 55 56 69 92 90 97 96 86 95 99 98 100 102 95 98 102 99 93 89 91 87 92 96 92 91 88 90 88 88 87 92 96
58 58 58 57 57 57 57 57 57 57 57 56 56 56 55 53 66 93 91 94 99 96 79 87 90 96 99 99 93 105 106 99 93 88 91 91 97 90 89 88 91 84 95 92 89 87 81
58 58 57 57 57 57 57 56 56 56 56 56 56 55 55 53 78 89 91 98 99 94 65 90 91 102 102 94 97 97 106 100 90 90 90 87 90 89 86 89 94 88 95 91 90 87 86
58 57 57 57 57 57 56 56 56 56 56 55 55 55 54 73 81 93 96 97 93 75 64 83 92 89 90 93 95 97 97 102 100 91 92 91 96 95 93 95 95 97 91 90 90 88 77
57 57 57 57 56 56 56 56 56 56 55 55 54 54 57 79 87 94 95 90 74 68 86 82 85 90 90 88 90 91 88 87 85 77 79 87 89 95 96 89 94 92 86 75 73 74 73
57 57 57 56 56 56 56 56 56 55 55 54 53 52 64 83 92 91 89 80 64 79 82 88 87 89 84 90 89 90 88 84 90 89 85 79 77 89 95 91 87 87 87 77 66 70 75
57 57 57 56 56 56 55 55 55 55 54 54 51 79 85 90 90 89 82 69 72 80 85 82 87 81 84 88 88 88 86 86 90 91 80 81 80 95 95 96 94 87 81 92 80 82 77
56 57 56 56 56 56 55 55 55 55 54 53 73 87 88 90 90 86 77 66 80 84 84 84 76 84 79 84 83 85 84 90 90 94 95 88 77 91 93 95 95 90 94 80 82 66 66
56 56 56 56 56 56 55 55 55 54 54 52 74 81 86 92 90 81 71 76 82 86 84 81 81 81 82 82 84 84 84 90 93 93 95 92 84 86 90 85 85 86 84 86 88 82 72
56 56 56 56 56 56 55 55 55 53 52 54 82 76 88 90 75 79 75 81 60 81 85 84 82 82 81 83 81 83 83 88 96 95 87 92 86 78 83 93 95 93 88 87 78 73 80
56 56 56 56 56 56 55 55 54 53 52 69 79 82 89 87 72 76 80 77 79 80 81 81 80 84 84 80 75 82 85 92 92 92 88 91 82 74 77 87 90 85 89 89 88 84 74
56 56 56 56 56 56 56 55 55 54 53 63 78 73 79 81 84 76 76 73 74 82 81 83 81 84 80 78 82 79 83 88 91 92 74 85 84 77 75 79 87 81 85 88 85 78 78
56 56 55 55 56 56 56 55 55 54 53 64 80 77 78 72 76 77 76 75 73 73 80 82 78 79 78 74 77 78 84 87 89 78 87 88 75 81 84 87 88 86 84 85 82 84 79
56 56 55 55 55 56 56 55 55 54 52 72 73 75 81 81 73 73 64 72 72 76 77 75 74 80 82 75 78 77 82 84 83 89 85 89 76 80 79 86 87 82 86 86 86 87 85
56 55 55 55 55 56 56 56 55 53 54 81 82 81 77 66 74 73 75 73 73 76 78 80 81 79 78 81 86 88 89 87 86 82 82 82 79 76 72 83 83 76 83 85 86 88 88
56 55 55 55 55 56 56 56 55 53 52 74 75 75 74 72 76 77 74 74 73 74 73 81 81 76 83 87 88 88 88 88 87 86 88 79 76 78 74 77 65 83 93 92 87 88 91
55 55 55 55 55 55 56 56 55 54 53 73 77 75 75 72 79 75 74 74 76 76 74 76 80 84 85 81 75 72 75 76 80 86 84 86 80 75 71 72 77 81 86 87 85 82 91
55 55 55 55 55 55 55 56 56 55 53 67 73 74 74 72 73 74 73 74 73 75 76 78 83 85 83 79 75 64 65 71 71 77 86 85 81 77 75 67 63 79 90 95 93 76 89
55 55 55 55 55 55 55 56 56 55 54 61 74 72 73 71 77 74 72 70 76 75 74 76 75 78 83 76 73 71 71 78 70 70 72 75 75 72 73 71 75 76 88 91 72 73 87
55 55 55 55 55 55 55 55 55 55 55 59 72 72 70 72 76 75 76 71 75 75 70 73 75 76 78 71 73 73 72 76 75 71 72 73 71 72 75 68 60 85 84 77 78 84 88
55 55 55 54 55 54 55 55 55 55 54 55 73 77 75 69 73 77 78 79 76 75 72 75 71 70 73 73 74 75 70 76 71 68 77 71 73 68 70 66 75 81 78 81 83 83 86
MSLP
1023.58 1023.24 1022.91 1022.63 1022.39 1021.96 1021.60 1021.29 1020.99 1020.49 1019.98 1019.56 1019.09 1018.51 1018.04 1017.69 1017.08 1016.53 1016.05 1015.49 1014.80 1014.23 1013.77 1013.14 1012.69 1012.24 1010.91 1008.64 1006.17 1007.01 1007.56 1007.63 1007.17 1006.25 1005.31 1004.68 1004.02 1003.31 1002.28 1001.17 1001.32 1000.87 1000.41 1000.79 1000.43 1000.49 1000.69
1023.77 1023.45 1023.16 1022.85 1022.53 1022.15 1021.73 1021.39 1021.03 1020.66 1020.17 1019.75 1019.18 1018.65 1018.10 1017.53 1016.96 1016.39 1015.90 1015.10 1014.60 1014.15 1013.46 1012.91 1012.44 1012.29 1010.45 1007.27 1006.12 1006.26 1006.45 1006.37 1005.65 1005.12 1004.49 1004.35 1003.49 1003.01 1002.45 1001.45 1001.19 1000.55 1000.71 1000.41 1000.27 1000.17 1000.63
1023.97 1023.73 1023.45 1023.11 1022.79 1022.43 1022.01 1021.69 1021.25 1020.79 1020.28 1019.69 1019.13 1018.59 1018.02 1017.40 1016.71 1016.27 1015.57 1014.92 1014.39 1013.77 1013.26 1012.61 1012.20 1011.63 1008.70 1006.25 1006.03 1005.97 1006.03 1005.44 1005.41 1004.79 1004.11 1004.27 1004.15 1003.50 1002.18 1001.66 1001.28 1001.07 1000.72 1000.01 999.66 999.87 1000.08
1024.23 1023.97 1023.59 1023.23 1022.94 1022.67 1022.27 1021.85 1021.30 1020.73 1020.25 1019.72 1019.07 1018.47 1017.95 1017.25 1016.69 1015.92 1015.10 1014.37 1013.85 1013.09 1012.71 1012.11 1011.90 1010.70 1007.16 1005.91 1005.86 1005.93 1005.48 1005.09 1005.17 1004.87 1004.71 1004.54 1004.31 1003.47 1002.62 1001.74 1001.55 1000.90 1000.05 998.93 999.31 1000.01 1000.07
1024.33 1024.05 1023.81 1023.53 1023.22 1022.81 1022.28 1021.87 1021.37 1020.85 1020.35 1019.75 1019.15 1018.55 1017.89 1017.21 1016.44 1015.65 1014.83 1013.89 1013.17 1012.67 1012.30 1011.87 1011.06 1009.05 1005.89 1006.59 1005.80 1005.00 1004.98 1004.67 1004.43 1004.56 1004.45 1004.74 1004.38 1003.12 1002.12 1001.94 1000.84 999.94 999.67 1000.04 999.41 1000.01 1000.18
1024.54 1024.16 1023.85 1023.46 1023.15 1022.81 1022.43 1021.95 1021.43 1020.91 1020.40 1019.85 1019.27 1018.65 1018.01 1017.16 1016.34 1015.50 1014.28 1013.09 1012.23 1012.29 1011.80 1010.51 1009.41 1008.15 1005.67 1005.03 1004.93 1005.01 1004.95 1005.08 1004.60 1004.07 1004.07 1004.17 1003.57 1002.68 1002.07 1001.07 999.64 998.98 999.03 999.48 999.57 999.80 1000.10
1024.77 1024.33 1023.99 1023.68 1023.29 1022.82 1022.43 1022.06 1021.63 1021.12 1020.51 1019.89 1019.35 1018.75 1017.95 1017.07 1016.19 1015.45 1014.04 1010.98 1011.68 1010.99 1009.37 1007.27 1006.23 1005.29 1005.21 1005.15 1005.49 1005.00 1004.73 1004.83 1004.54 1004.22 1003.36 1003.11 1002.53 1001.49 1001.00 1000.72 999.88 999.87 999.63 999.34 999.78 1000.16 1000.43
1024.80 1024.48 1024.19 1023.75 1023.35 1022.90 1022.41 1021.93 1021.45 1020.99 1020.37 1019.76 1019.08 1018.45 1017.80 1016.87 1016.00 1015.29 1014.90 1010.93 1011.11 1011.18 1008.41 1005.95 1005.64 1005.28 1005.22 1005.34 1004.44 1004.23 1004.61 1004.50 1004.01 1003.46 1003.01 1002.84 1002.06 1001.22 1000.90 1001.02 1000.61 1000.74 1000.47 1000.21 999.97 1000.39 1000.54
1024.85 1024.47 1024.09 1023.70 1023.26 1022.87 1022.45 1022.01 1021.41 1020.87 1020.25 1019.74 1019.18 1018.63 1017.86 1016.83 1015.81 1014.51 1012.17 1011.32 1011.07 1010.49 1008.41 1004.91 1004.57 1004.45 1004.34 1004.74 1004.03 1003.29 1004.19 1003.78 1003.40 1003.17 1002.49 1002.21 1001.16 1001.27 1001.75 1001.57 1001.49 1000.99 1000.56 1000.13 999.97 1000.13 1000.22
1024.87 1024.47 1024.07 1023.76 1023.28 1022.84 1022.43 1021.95 1021.30 1020.83 1020.39 1019.85 1019.26 1018.65 1017.90 1016.69 1015.55 1012.50 1011.18 1011.30 1010.77 1010.69 1007.73 1004.06 1003.87 1003.58 1003.99 1004.05 1003.37 1003.27 1003.46 1003.36 1003.15 1002.76 1002.43 1002.02 1001.53 1001.95 1001.98 1001.71 1001.40 1000.69 1000.36 1000.43 1000.35 1000.39 999.37
1024.84 1024.43 1024.10 1023.66 1023.24 1022.82 1022.37 1021.84 1021.34 1020.85 1020.21 1019.70 1019.17 1018.59 1017.88 1017.73 1015.19 1012.09 1011.52 1011.06 1010.72 1010.31 1006.16 1003.14 1003.08 1003.65 1002.91 1003.25 1002.11 1002.61 1003.28 1003.24 1002.84 1002.67 1002.85 1001.83 1001.70 1001.65 1001.66 1001.37 1001.27 1000.74 1000.48 1000.65 1000.82 1000.55 1000.08
1024.68 1024.37 1023.96 1023.53 1023.10 1022.60 1022.23 1021.70 1021.01 1020.50 1019.80 1019.39 1018.83 1018.34 1017.67 1015.47 1014.59 1012.11 1011.69 1011.27 1010.87 1008.84 1004.44 1002.97 1002.75 1002.92 1002.81 1002.71 1002.16 1002.53 1002.97 1003.23 1002.91 1002.64 1002.62 1001.84 1001.88 1001.55 1001.38 1001.21 1001.23 1000.90 1001.17 1001.11 1001.01 1000.52 999.65
1024.65 1024.38 1023.94 1023.59 1023.04 1022.60 1022.09 1021.48 1020.74 1020.22 1019.67 1019.13 1018.35 1017.83 1017.63 1015.19 1012.27 1012.36 1011.89 1010.89 1008.95 1005.87 1003.53 1002.38 1002.10 1002.05 1001.87 1001.70 1002.04 1002.28 1002.56 1002.74 1002.43 1002.41 1001.92 1001.83 1001.57 1001.65 1001.47 1001.03 1001.37 1001.22 1000.88 1000.47 1000.18 999.57 999.16
1024.73 1024.23 1024.04 1023.61 1023.10 1022.65 1022.10 1021.39 1020.78 1020.24 1019.29 1018.47 1017.68 1017.19 1015.30 1014.07 1012.90 1012.80 1011.74 1010.03 1007.05 1004.45 1003.03 1002.70 1002.28 1001.63 1001.24 1000.99 1001.40 1001.54 1001.72 1001.73 1002.04 1001.48 1000.69 1000.49 1000.38 1000.82 1000.87 1000.79 1000.31 1000.79 1000.47 999.75 999.16 999.03 998.97
1024.72 1024.43 1024.07 1023.66 1023.14 1022.63 1021.98 1021.24 1020.54 1019.72 1019.02 1018.27 1016.99 1014.77 1013.39 1012.63 1012.94 1012.78 1010.99 1008.31 1005.87 1004.19 1003.43 1002.81 1002.43 1001.91 1000.99 1000.87 1001.06 1001.21 1001.31 1000.95 1000.96 1001.36 1001.12 999.97 999.89 999.72 1000.32 1000.58 1000.46 999.97 1000.41 1000.10 999.93 999.83 999.78
1024.65 1024.29 1023.99 1023.49 1022.99 1022.44 1021.77 1021.03 1020.33 1019.60 1018.99 1018.35 1015.86 1012.64 1011.51 1012.47 1012.59 1012.01 1010.16 1007.51 1005.45 1004.99 1004.99 1004.46 1003.07 1001.75 1000.98 1000.65 1001.11 1000.80 1000.71 1000.75 1000.38 1000.63 1001.38 1000.44 1000.20 999.75 1000.13 1000.57 1000.38 1000.23 1000.27 1000.32 1000.43 1000.08 999.58
1024.57 1024.20 1023.81 1023.33 1022.90 1022.25 1021.66 1021.01 1020.31 1019.45 1018.33 1017.71 1015.58 1011.77 1011.92 1012.07 1012.11 1010.73 1008.46 1006.91 1006.12 1005.75 1006.02 1005.04 1003.63 1002.55 1001.97 1000.83 1000.70 1000.41 1000.40 1000.42 1000.45 1000.33 1001.05 1000.91 1000.92 999.33 999.99 1000.43 999.98 1000.53 1000.34 1000.06 999.41 999.62 999.21
1024.50 1024.09 1023.74 1023.35 1022.84 1022.25 1021.63 1020.91 1020.16 1019.32 1017.83 1016.78 1013.59 1010.81 1011.58 1011.71 1010.69 1009.06 1007.65 1006.93 1008.13 1006.42 1006.49 1005.73 1005.19 1004.09 1003.09 1002.23 1001.72 1000.98 1000.22 999.99 1000.26 1000.44 1000.63 1000.95 1000.84 1000.08 999.66 999.86 1000.04 999.56 999.62 1000.11 999.94 1000.29 1000.49
1024.30 1023.94 1023.65 1023.24 1022.68 1022.11 1021.43 1020.83 1020.14 1019.40 1018.90 1016.93 1012.51 1010.53 1011.29 1010.97 1008.72 1007.52 1007.33 1007.43 1007.67 1006.96 1006.45 1005.86 1005.32 1004.84 1004.25 1003.54 1003.01 1001.71 1000.98 1001.03 1001.29 1000.94 1000.84 1001.05 1001.06 1000.41 1000.10 999.63 1000.29 1000.11 1000.01 999.98 1000.04 1000.73 1000.76
1024.20 1023.83 1023.48 1023.11 1022.59 1022.04 1021.39 1020.67 1019.93 1019.27 1018.75 1017.92 1012.80 1010.12 1010.26 1010.25 1008.64 1007.87 1007.03 1007.48 1007.29 1007.41 1006.92 1006.27 1005.80 1005.25 1004.98 1004.30 1003.69 1002.61 1001.84 1001.59 1002.03 1001.82 1002.11 1001.85 1001.01 1000.87 999.44 999.19 998.89 999.48 1000.03 1000.03 1000.27 1000.17 1000.41
1024.07 1023.75 1023.30 1023.01 1022.53 1021.94 1021.29 1020.55 1019.71 1018.97 1018.53 1017.81 1012.57 1009.60 1009.56 1008.70 1008.29 1008.00 1007.86 1007.55 1007.15 1006.91 1007.23 1006.63 1006.37 1006.00 1005.33 1004.51 1003.78 1003.00 1002.61 1001.63 1002.25 1002.43 1002.50 1002.23 1001.87 1001.44 1000.53 999.91 999.00 998.61 999.39 999.75 1000.05 1000.18 1000.29
1023.83 1023.59 1023.14 1022.76 1022.37 1021.87 1021.27 1020.62 1019.83 1018.69 1017.87 1016.27 1012.96 1011.06 1010.14 1008.92 1009.17 1008.58 1008.35 1007.79 1007.51 1006.91 1006.81 1006.50 1006.43 1005.47 1005.21 1004.84 1004.20 1002.95 1002.58 1001.92 1001.67 1001.84 1002.44 1002.29 1002.06 1001.85 1000.81 1000.23 999.43 999.37 999.31 999.28 999.67 999.87 1000.43
1023.55 1023.45 1023.14 1022.67 1022.46 1021.99 1021.27 1020.56 1019.89 1018.82 1017.61 1014.40 1013.65 1012.52 1011.52 1009.49 1009.09 1008.40 1007.39 1007.71 1007.64 1007.47 1007.33 1006.93 1005.97 1005.69 1004.98 1004.87 1004.77 1004.09 1003.55 1003.34 1002.83 1002.60 1002.21 1002.19 1002.09 1001.89 1000.85 1000.28 999.67 999.11 999.21 999.03 999.49 999.88 1000.11
1023.30 1023.32 1023.11 1022.77 1022.62 1022.23 1021.69 1021.01 1020.35 1019.57 1018.97 1016.28 1015.29 1014.07 1011.59 1009.01 1008.51 1007.85 1008.18 1008.61 1008.29 1008.15 1007.59 1006.48 1006.56 1006.55 1005.98 1006.26 1005.79 1005.07 1004.52 1003.64 1003.25 1002.88 1002.76 1002.35 1002.47 1002.03 1001.03 1000.53 999.24 998.66 998.86 998.84 999.12 999.51 999.96
1023.06 1023.11 1023.07 1022.83 1022.64 1022.40 1022.01 1021.35 1020.72 1019.93 1019.07 1016.79 1015.94 1014.58 1012.35 1009.87 1008.77 1008.89 1009.01 1008.69 1008.52 1008.39 1008.35 1007.69 1007.22 1006.86 1007.22 1006.74 1005.83 1004.83 1004.15 1003.67 1002.91 1002.49 1002.46 1002.40 1002.34 1001.67 1001.10 1000.29 999.41 999.00 998.93 998.76 998.69 999.41 998.91
1022.76 1022.89 1022.85 1022.73 1022.54 1022.39 1022.08 1021.56 1021.13 1020.43 1019.62 1018.19 1016.90 1016.27 1014.15 1011.66 1009.97 1010.52 1009.77 1009.28 1008.54 1007.67 1007.54 1007.56 1007.63 1007.82 1007.51 1006.30 1005.18 1004.09 1003.18 1002.77 1002.59 1002.26 1002.30 1002.28 1002.48 1002.01 1000.89 1000.46 999.73 999.09 998.85 999.35 999.60 1000.17 1000.72
1022.38 1022.54 1022.65 1022.63 1022.55 1022.47 1022.16 1021.68 1021.28 1020.79 1020.11 1019.31 1017.11 1017.14 1015.15 1012.57 1011.45 1011.74 1010.59 1010.52 1010.16 1009.43 1008.25 1008.01 1008.39 1007.52 1007.02 1005.81 1004.27 1003.51 1002.81 1002.40 1001.75 1001.66 1002.02 1002.19 1002.09 1001.73 1001.30 1000.78 1000.83 1001.35 1000.21 1000.52 1001.03 1002.32 1002.09
1022.05 1022.27 1022.49 1022.60 1022.65 1022.60 1022.29 1021.79 1021.48 1021.15 1020.64 1019.55 1017.32 1017.45 1016.20 1013.68 1012.35 1012.60 1012.20 1011.94 1011.29 1010.73 1009.65 1009.79 1008.84 1008.01 1006.88 1005.91 1004.58 1003.75 1003.01 1002.03 1001.77 1002.45 1002.41 1001.71 1001.95 1001.40 1001.43 1001.51 1002.49 1002.27 1002.41 1001.98 1003.49 1003.50 1003.57
1021.76 1022.07 1022.32 1022.57 1022.63 1022.61 1022.38 1021.94 1021.67 1021.45 1020.77 1019.97 1016.93 1016.98 1016.80 1015.27 1013.12 1013.25 1013.05 1013.04 1013.01 1012.85 1012.38 1010.76 1010.32 1010.04 1009.48 1007.66 1006.15 1005.93 1005.19 1004.21 1003.26 1002.19 1002.99 1002.71 1003.22 1003.09 1003.56 1004.08 1004.69 1004.21 1005.22 1004.55 1004.97 1004.69 1004.65
Wind_Speed
12 13 14 14 14 15 15 15 15 16 17 17 18 18 18 19 20 20 21 20 19 19 18 17 16 14 11 11 6 10 7 9 11 12 11 12 14 15 19 15 3 13 5 3 4 3 8
13 13 13 14 15 15 16 16 16 16 16 17 18 18 19 20 20 20 20 20 20 19 18 16 14 12 9 14 4 6 4 7 7 10 7 11 10 8 15 6 11 4 4 5 5 5 5
12 13 13 14 14 15 16 16 16 17 17 18 18 19 19 21 22 21 21 21 20 19 17 14 10 7 11 7 2 2 8 6 1 6 7 3 7 13 9 13 6 11 13 17 14 2 8
12 12 13 14 15 15 15 16 17 17 18 19 20 20 20 21 22 23 22 23 22 18 13 10 5 11 11 4 5 6 8 9 8 7 8 3 8 13 11 11 10 17 20 13 9 1 5
13 12 13 14 14 15 16 16 17 17 18 19 20 21 21 22 22 23 23 24 21 13 11 9 8 9 9 5 10 10 8 9 6 8 7 5 12 14 13 13 17 15 2 26 10 5 3
12 12 13 15 15 15 15 16 17 18 18 18 19 20 20 22 22 23 26 18 6 9 8 10 9 9 8 5 3 3 6 7 8 7 8 11 11 14 15 15 16 14 15 24 3 1 6
10 11 13 14 15 15 16 16 17 18 18 19 19 20 21 22 22 22 18 6 8 8 12 15 3 11 2 4 5 10 8 9 10 10 13 12 11 15 19 18 22 14 12 10 6 3 10
10 11 12 13 14 15 16 17 17 19 19 20 20 21 22 23 23 22 10 7 8 6 11 12 13 12 6 3 6 9 9 10 12 14 14 7 13 16 12 11 9 10 12 11 8 3 10
11 11 12 13 14 14 16 16 18 19 20 20 20 20 22 23 24 10 7 6 7 7 9 12 12 14 13 13 13 11 13 13 10 14 14 15 6 4 5 12 12 14 15 14 7 3 11
12 12 13 14 14 15 16 17 18 19 19 19 19 19 20 27 7 4 5 3 7 3 8 14 11 10 9 9 17 14 12 10 10 12 13 12 16 4 9 14 13 16 17 13 6 9 14
12 12 13 14 15 15 16 17 18 19 19 19 19 19 19 11 13 7 7 6 6 5 9 9 12 6 9 14 5 16 12 12 13 11 7 14 13 11 14 14 13 15 5 4 10 13 14
11 12 14 15 16 17 17 18 19 19 19 20 19 19 20 6 8 8 7 7 6 9 11 9 8 12 14 18 12 8 13 13 10 10 11 19 1 12 17 15 9 12 7 7 10 13 13
10 12 13 15 16 17 18 18 19 20 21 21 20 17 10 9 2 6 7 9 9 12 7 8 11 11 16 16 19 15 15 18 14 12 13 15 14 12 12 8 12 12 13 10 12 12 9
9 11 12 14 15 17 18 18 19 21 22 23 22 18 9 10 6 7 7 10 13 12 20 4 5 9 11 14 18 18 14 16 19 17 15 13 15 16 13 17 11 15 17 11 11 7 6
8 10 12 13 15 16 17 19 20 21 22 23 25 8 9 6 6 6 9 13 12 15 5 2 11 12 14 11 13 18 18 17 18 19 12 7 14 16 15 14 15 15 16 15 10 9 9
7 9 11 13 15 16 17 19 21 22 22 20 7 6 6 2 6 8 10 16 15 2 6 7 14 11 14 15 15 16 18 16 17 15 14 10 11 12 14 8 8 14 6 11 8 11 13
7 9 12 13 15 16 18 19 20 22 23 17 7 7 7 7 7 9 12 17 18 7 5 10 12 12 14 6 10 16 12 14 15 15 12 17 8 10 10 12 15 12 12 9 15 6 7
8 9 10 13 14 15 17 18 20 21 27 5 8 6 7 7 9 10 12 17 5 5 10 12 6 10 9 6 9 17 13 6 15 16 17 18 10 13 12 15 21 17 12 16 10 11 8
8 8 10 13 13 16 18 18 20 19 16 8 7 3 5 8 8 9 11 5 6 10 10 11 11 10 2 9 5 11 9 10 1 13 10 13 9 11 15 10 8 11 16 10 9 10 9
7 7 10 13 15 16 17 19 20 20 16 5 7 6 6 8 10 10 14 11 14 12 14 8 8 9 8 11 8 7 9 3 5 12 9 7 13 13 12 15 11 19 18 18 16 12 13
7 7 9 12 15 17 17 19 22 22 16 5 6 3 6 8 10 10 1 5 11 13 11 12 14 16 15 13 12 12 13 9 10 5 9 10 12 16 19 18 13 6 13 16 18 18 17
6 8 9 12 15 17 18 19 21 25 23 7 7 5 4 2 4 5 6 11 11 10 9 10 14 14 18 15 13 8 7 9 12 14 12 16 13 15 18 19 19 10 13 10 16 18 14
6 7 9 11 14 16 19 19 21 25 19 4 2 3 7 7 9 10 9 7 4 5 9 13 11 12 11 6 9 14 7 9 11 10 8 12 13 15 16 20 19 16 16 13 13 14 12
7 5 7 8 11 14 16 18 19 21 18 9 4 6 8 8 8 6 4 3 6 5 12 2 5 8 5 7 11 12 13 16 11 12 12 10 12 12 15 15 23 9 19 19 15 15 13
9 6 5 6 9 11 14 16 17 19 21 8 5 5 6 10 2 6 7 5 6 6 9 11 10 7 8 9 10 13 13 13 15 15 11 14 11 13 14 16 15 6 6 9 12 12 11
10 7 5 5 7 10 12 14 16 16 19 9 5 6 6 8 5 7 7 4 9 7 6 9 1 5 8 11 11 15 13 12 16 12 11 12 11 13 12 20 17 13 19 13 13 8 2
11 8 6 4 6 9 10 12 15 16 17 8 3 7 6 8 8 8 4 10 7 9 9 5 6 7 8 11 12 14 15 18 18 19 13 11 11 15 15 13 6 11 10 5 14 6 10
12 10 7 5 5 7 9 11 13 15 17 10 4 4 7 5 4 4 5 6 8 6 10 11 8 7 8 9 10 7 9 11 12 7 12 15 14 13 15 11 7 5 2 5 9 4 8
13 11 9 7 5 5 7 9 11 13 17 15 2 1 4 6 7 5 7 7 7 7 8 7 6 5 7 6 4 4 9 1 16 7 3 3 7 4 11 6 1 10 10 9 4 6 7
Wind_Direction
23 18 17 15 13 11 9 6 1 357 354 348 344 340 339 333 332 329 325 320 320 315 311 312 310 318 302 230 76 126 170 191 220 218 230 228 240 237 254 263 283 256 151 240 214 126 331
20 17 16 13 10 8 4 1 358 353 350 345 342 338 337 334 329 327 321 320 316 309 308 306 305 311 253 266 84 125 211 208 241 231 208 231 260 316 294 295 275 316 270 243 237 130 222
16 15 12 12 9 4 2 358 355 352 347 344 341 338 335 333 330 322 320 315 309 306 300 297 296 283 269 288 338 214 213 244 259 290 254 194 282 259 250 259 236 265 246 222 204 144 282
13 11 8 9 5 1 360 356 353 351 346 342 339 337 333 332 326 320 319 312 307 303 292 291 285 262 276 101 303 231 236 229 214 232 263 301 281 274 274 304 253 247 241 259 78 106 100
10 9 7 7 4 360 357 354 352 349 345 341 338 335 332 328 326 321 314 307 297 290 279 275 251 234 270 132 215 222 219 256 194 231 226 282 262 261 239 244 245 221 284 318 146 108 318
12 8 2 3 1 360 356 353 349 346 344 341 336 333 329 327 324 321 315 285 280 295 223 238 264 265 220 227 118 260 233 262 258 240 234 224 234 237 229 234 243 233 219 200 214 58 327
12 8 3 359 359 357 354 351 347 344 343 340 335 332 328 325 322 321 323 261 218 192 223 258 51 267 143 209 203 217 193 221 241 240 250 196 242 229 240 226 266 333 324 348 332 41 277
9 2 359 356 356 354 351 348 346 343 342 339 336 333 328 324 319 314 280 291 36 336 299 259 248 258 269 264 243 219 194 221 210 240 220 229 228 249 246 320 298 262 273 260 256 250 281
352 354 353 356 353 352 349 347 345 341 340 337 334 330 326 321 317 286 299 23 328 310 259 261 218 234 220 209 237 217 200 214 231 233 243 248 248 84 257 247 255 251 260 259 264 175 249
351 353 352 350 350 349 349 346 344 340 337 332 330 328 326 322 291 344 236 2 310 297 269 188 204 217 197 225 229 237 190 227 225 252 229 249 254 213 224 246 230 256 238 248 281 256 274
347 350 348 349 348 347 345 343 342 337 333 330 327 325 322 329 316 244 28 317 317 243 266 134 134 84 209 205 88 186 194 204 248 211 261 226 229 204 238 233 234 259 336 235 243 265 267
346 348 347 347 346 346 343 339 338 334 332 327 323 322 324 210 222 291 298 298 243 230 245 153 159 196 195 210 219 127 197 228 242 251 210 268 159 250 233 232 250 265 241 241 253 257 255
347 342 346 345 346 344 341 337 337 334 330 324 320 314 293 308 359 336 288 237 226 242 127 198 197 199 207 191 216 192 192 203 219 215 223 217 226 222 247 222 214 228 226 226 220 217 246
339 341 343 344 345 342 338 336 334 331 331 325 317 313 191 261 314 285 246 223 244 239 243 60 299 197 229 218 200 205 213 213 220 233 273 210 200 209 178 236 198 215 244 258 284 271 202
332 337 341 344 345 340 334 335 334 334 332 326 311 203 228 179 222 249 234 225 217 256 291 162 223 245 219 226 234 212 218 220 216 223 246 241 242 183 205 209 249 207 224 261 300 269 291
326 335 338 345 345 340 336 335 335 333 329 332 294 241 156 169 209 223 232 244 238 344 353 273 259 229 235 193 201 234 206 230 230 206 225 268 273 178 182 246 235 275 226 223 231 271 257
319 333 338 345 343 341 337 336 334 333 329 331 247 229 106 165 206 218 224 231 245 143 268 265 265 268 259 298 207 226 221 222 221 225 222 237 236 210 162 201 220 202 248 257 282 271 311
314 332 337 337 340 339 336 337 338 339 332 281 279 233 133 197 207 216 227 236 3 270 214 252 278 298 293 271 257 252 217 234 191 231 204 223 229 254 207 221 224 262 226 223 250 221 265
309 328 335 337 341 341 338 337 338 343 349 309 254 85 160 227 228 206 226 244 234 245 240 232 234 240 271 267 257 273 244 78 188 254 209 212 231 236 248 172 213 248 249 265 262 267 253
308 326 337 339 343 343 340 339 340 341 341 273 275 197 148 208 278 300 216 216 216 217 267 251 267 273 250 250 234 275 247 206 239 253 359 285 245 241 253 231 246 194 232 239 243 243 243
314 330 343 341 344 344 344 343 340 338 344 268 248 298 11 193 211 229 247 284 228 233 205 229 236 241 244 240 247 235 244 252 192 202 248 241 247 250 256 273 282 209 207 227 232 239 248
303 332 344 345 345 345 346 346 344 337 337 254 307 315 185 345 316 237 170 239 238 238 258 220 234 252 219 239 260 281 303 234 238 175 228 226 234 254 263 254 263 237 259 226 219 236 236
278 319 340 349 345 345 348 349 349 343 336 306 16 232 275 127 202 229 222 227 260 285 267 254 277 239 258 264 287 297 321 309 299 306 225 226 238 238 247 243 247 226 243 209 217 228 251
251 289 326 344 343 346 348 349 350 346 357 314 20 287 266 247 243 210 82 236 259 267 274 260 227 255 325 324 290 266 267 267 238 249 249 236 235 253 248 244 246 231 229 230 214 225 221
233 254 295 331 341 344 346 351 352 346 348 313 358 298 294 281 291 159 216 289 293 213 229 254 255 333 329 279 254 233 229 239 240 238 213 240 240 233 250 236 244 151 239 241 215 214 178
223 240 268 316 337 340 346 353 351 348 344 310 46 306 281 294 68 6 300 326 304 331 172 221 147 300 275 252 217 226 222 217 215 212 225 222 229 258 224 252 241 208 187 207 214 221 84
216 226 249 289 324 332 342 352 352 348 343 314 43 345 272 277 68 337 338 350 352 314 290 120 1 273 232 246 242 216 225 229 221 214 177 221 226 221 234 225 189 357 105 160 203 102 99
208 216 227 251 293 318 332 349 351 346 339 327 78 345 317 309 21 359 354 338 336 359 326 20 256 196 249 261 247 262 264 242 234 68 301 196 212 230 227 260 155 36 262 256 93 119 128
199 208 213 225 256 297 322 341 348 345 339 338 269 333 312 268 8 322 298 297 293 310 312 308 344 6 2 286 346 15 285 253 272 195 140 287 359 9 14 76 347 63 62 90 57 103 106